This is the latest recevied weather packets stored in our database for station/object KB1JLI. If no packets are shown the sender has not sent any weather packets the latest 10 day(s).
| Time | Temp. | Humidity | Pressure | Rain* | Wind** | Luminosity | Snow |
|---|---|---|---|---|---|---|---|
| 1777768310 | 9.44° C | 92% | 1011 hPa | 0 mm | - | 0 W/m² | - |
| 1777768007 | 9.44° C | 92% | 1011 hPa | 0 mm | - | 0 W/m² | - |
| 1777767704 | 9.44° C | 92% | 1010.8 hPa | 0 mm | - | 0 W/m² | - |
| 1777767400 | 9.44° C | 92% | 1011 hPa | 0 mm | - | 0 W/m² | - |
| 1777767097 | 9.44° C | 92% | 1010.9 hPa | 0 mm | - | 0 W/m² | - |
| 1777766795 | 9.44° C | 92% | 1010.9 hPa | 0 mm | - | 0 W/m² | - |
| 1777766492 | 10° C | 91% | 1010.7 hPa | 0 mm | - | 0 W/m² | - |
| 1777765582 | 10° C | 90% | 1010.4 hPa | 0 mm | - | 3 W/m² | - |
| 1777764975 | 10° C | 90% | 1010.5 hPa | 0 mm | - | 5 W/m² | - |
| 1777764672 | 10° C | 90% | 1010.4 hPa | 0 mm | - | 5 W/m² | - |
| 1777764368 | 10.56° C | 90% | 1010.4 hPa | 0 mm | - | 8 W/m² | - |
| 1777762249 | 11.11° C | 83% | 1010.5 hPa | 0 mm | - | 9 W/m² | - |
| 1777761643 | 11.11° C | 81% | 1010.3 hPa | 0 mm | - | 8 W/m² | - |
| 1777761340 | 11.11° C | 80% | 1010.2 hPa | 0 mm | - | 11 W/m² | - |
| 1777761039 | 11.11° C | 80% | 1010.3 hPa | 0 mm | - | 7 W/m² | - |
| 1777760735 | 11.11° C | 79% | 1010.2 hPa | 0 mm | - | 8 W/m² | - |
| 1777760432 | 11.11° C | 79% | 1010.2 hPa | 0 mm | - | 14 W/m² | - |
| 1777760127 | 11.67° C | 78% | 1010.3 hPa | 0 mm | - | 22 W/m² | - |
| 1777759825 | 11.67° C | 78% | 1010.2 hPa | 0 mm | - | 60 W/m² | - |
| 1777759520 | 11.67° C | 78% | 1010.2 hPa | 0 mm | - | 22 W/m² | - |
| 1777758915 | 11.67° C | 75% | 1010.2 hPa | 0 mm | - | 8 W/m² | - |
| 1777758611 | 12.22° C | 73% | 1010.2 hPa | 0 mm | - | 10 W/m² | - |
| 1777758309 | 12.22° C | 71% | 1010.1 hPa | 0 mm | - | 8 W/m² | - |
| 1777757702 | 12.78° C | 64% | 1010.1 hPa | 0 mm | - | 8 W/m² | - |
| 1777757400 | 12.78° C | 64% | 1010 hPa | 0 mm | - | 8 W/m² | - |
* Rain latest hour (hover to see other rain measurements)
** Current wind speed in m/s (hover to see current wind gust speed)